Location: Coffee Ditch
(40.9640°N, 122.7500°W)
Time: 11:57:20
(UTC+00:00)

Daily predictions for brighter satellites

Satellite Brightness Start Highest point End
(mag) Time Altitude Azimuth Time Altitude Azimuth Time Altitude Azimuth
Cosmos 1544 Rocket 3.4 12:05:54 36° SSW 12:07:34 67° W 12:11:55 10° N
METEOR-M 4.4 12:03:40 10° N 12:08:47 48° WNW 12:10:58 31° SW
Cosmos 2237 4.1 12:03:16 10° NNW 12:08:52 62° WSW 12:14:26 10° S
IRS-1D 3.7 12:04:36 10° NNE 12:09:56 76° ESE 12:15:16 10° S
Cosmos 1821 Rocket 4.1 12:09:38 10° NNW 12:15:26 47° W 12:21:12 10° SSW
Cosmos 1339 Rocket 4.4 12:14:02 10° S 12:20:07 88° E 12:26:14 10° N
Cosmos 540 Rocket 4.3 12:15:19 10° N 12:20:20 53° ENE 12:25:20 10° SE
ALOS 4.0 12:17:43 10° NNW 12:20:20 15° WNW 12:20:20 15° WNW
Cosmos 1190 Rocket 4.0 12:16:39 13° SSW 12:21:14 85° ESE 12:26:27 10° NNE
Cosmos 1763 Rocket 3.6 12:19:06 10° NNW 12:24:15 79° ENE 12:29:26 10° SSE
Okean 1-7 Rocket 3.6 12:24:09 10° N 12:28:39 89° ENE 12:33:06 10° S
SL-16 R/B 3.7 12:28:59 20° W 12:29:24 20° W 12:33:52 10° NW
Cosmos 2360 Rocket 2.2 12:28:32 10° NNW 12:34:11 84° ENE 12:39:48 10° SSE
BREEZE-M DEB (TANK) 4.0 12:32:52 10° NW 12:34:25 14° N 12:35:48 10° NE
Cosmos 1606 Rocket 4.0 12:32:02 10° S 12:36:17 64° E 12:40:35 10° NNE
Cosmos 676 Rocket 4.3 12:31:33 10° S 12:36:39 70° ESE 12:41:49 10° NNE
Cosmos 1812 3.3 12:34:28 10° S 12:37:53 53° E 12:41:21 10° NNE
Nadezhda 3 Rocket 4.4 12:32:48 13° SW 12:38:04 43° WNW 12:44:00 10° N
YAOGAN 6 3.4 12:37:10 10° NNW 12:39:47 24° WNW 12:40:27 22° W
NOSS 3-2 (A) 3.5 12:35:37 10° SSW 12:40:34 63° ESE 12:46:20 10° NE
COSMOS 2455 3.2 12:37:47 17° SW 12:42:21 50° NW 12:48:14 10° NNE
Cosmos 2322 Rocket 2.2 12:37:17 10° NNW 12:42:55 65° WSW 12:48:29 10° S
Cosmos 2151 4.4 12:41:07 10° N 12:45:03 41° ENE 12:48:57 10° SSE
Cosmos 1605 Rocket 4.3 12:39:05 10° N 12:45:23 71° E 12:51:32 10° SSE
Cosmos 2251 Rocket 4.2 12:43:59 15° SW 12:47:47 36° WNW 12:52:39 10° N
CZ-2C R/B 3.3 12:44:07 10° N 12:48:22 30° WNW 12:51:54 13° WSW
CZ-4C R/B 4.0 12:45:46 10° NW 12:48:24 14° NNW 12:51:18 10° N
ISS -2.2 12:47:58 18° WSW 12:48:25 18° SW 12:50:49 10° S
Cosmos 2333 Rocket 2.2 12:44:24 10° NNW 12:50:08 75° WSW 12:55:47 10° SSE
ATLAS 5 CENTAUR R/B 3.2 12:47:42 10° S 12:50:16 22° ESE 12:52:55 10° ENE
JB-3 4.3 12:47:25 10° SSE 12:51:13 84° ENE 12:55:07 10° N
Cosmos 2228 4.1 12:50:55 15° WSW 12:53:27 24° WNW 12:56:56 10° NNW
Cosmos 2219 Rocket 2.7 12:49:38 10° NNW 12:55:16 66° ENE 13:00:49 10° SSE
Cosmos 1535 Rocket 4.5 12:49:31 10° N 12:55:50 82° W 13:02:02 10° S
Cosmos 1862 4.0 12:52:56 10° NNW 12:56:12 28° W 12:59:27 10° SSW
Cosmos 1900 4.4 12:51:42 10° SW 12:56:42 66° WNW 13:01:40 10° NNE
CENTAUR R/B 2.5 12:52:15 11° SW 12:57:31 61° NW 13:04:17 10° NNE
ARGOS 3.5 12:52:33 10° NNE 12:57:56 72° ESE 13:03:15 10° S
Cosmos 1602 Rocket 4.0 12:55:29 10° NNW 12:59:38 39° W 13:03:46 10° SSW
H-2A R/B 4.3 12:59:09 10° NE 13:01:46 29° E 13:04:23 10° SSE
SL-16 R/B 3.1 12:57:45 10° NW 13:02:24 27° WSW 13:07:02 10° SSW
Cosmos 1954 Rocket 4.2 12:58:48 10° SW 13:03:50 53° WNW 13:08:56 10° N
H-2A R/B 2.6 13:02:00 10° N 13:07:00 42° WNW 13:12:03 10° SW
SJ 16-02 3.6 13:03:28 10° SSE 13:07:10 28° E 13:10:53 10° NE
USA 215 3.3 13:03:09 10° SE 13:09:38 64° SW 13:16:09 10° NW
Cosmos 1939 Rocket 2.9 13:05:48 10° N 13:09:41 56° WNW 13:13:34 10° SSW
Cosmos 2084 3.3 13:07:41 10° SW 13:11:55 76° NW 13:15:57 10° NNE
Cosmos 1867 3.6 13:06:28 10° SSW 13:11:55 86° WNW 13:17:26 10° NNE
SeaSat 1 4.0 13:11:14 10° SW 13:13:47 14° WSW 13:16:20 10° WNW
SKYMED 2 4.1 13:12:05 10° SSE 13:16:22 65° ENE 13:20:41 10° N
DELTA 2 R/B (1) 3.7 13:12:41 10° W 13:18:15 77° S 13:23:48 10° E
Uosat 12 SS-18 rocket 4.5 13:13:14 10° SW 13:18:58 75° WNW 13:23:45 10° NNE
Meteor 2-13 Rocket 4.5 13:13:50 10° S 13:19:59 81° W 13:26:09 10° N
Cosmos 1484 Rocket 3.1 13:16:38 10° N 13:20:09 41° WNW 13:23:41 10° SW
CZ-3 R/B 3.5 13:08:05 10° WSW 13:24:05 35° S 13:30:00 10° ESE
